Location: Alsip
(41.6689°N, 87.7387°W)
Time: 15:13:54
(UTC+00:00)

Cosmos 1151 Rocket - Pass Details

Date: 14 July 2020
Orbit: 591 x 617 km, 82.5° (Epoch: 12 August)

Event Time Altitude Azimuth Distance (km) Brightness Sun altitude
Rises 04:27:47 0° 351° (N) 2,860 7.8 -23.4°
Reaches altitude 10° 04:30:00 10° 351° (N) 1,948 6.6 -23.6°
Enters shadow 04:34:17 84° 277° (W) 606 2.9 -23.9°
